Regional Weather Roundup
Issued by NWS

Home | Current Version | Previous Version | Text Only | Print | Product List | Glossary Off
Versions: 1 2 3 4 5 6 7 8 9 10 11 12 13 14 15 16 17 18 19 20 21 22 23 24 25 26 27 28 29 30 31 32 33 34 35 36 37 38 39 40 41 42 43 44 45 46 47 48 49 50

604
ASUS44 KMEG 220810
RWRTN
TENNESSEE HOURLY STATE WEATHER ROUNDUP
NATIONAL WEATHER SERVICE MEMPHIS TN
200 AM CST SUN JAN 22 2017

TNZ002-004-019-021-049-052-054-088>092-220900-
WEST TENNESSEE

CITY           SKY/WX    TMP DP  RH WIND       PRES   REMARKS
MEMPHIS INTL   HVY RAIN  57  54  89 E17       29.39F FOG
NWS MEMPHIS      N/A     57 N/A N/A MISG        N/A
JACKSON        CLOUDY    57  53  86 CALM      29.45F
DYERSBURG      CLOUDY    57  52  82 SE8       29.45S
UNION CITY     CLEAR     57  57 100 CALM      29.46R
PARIS          CLEAR     54  48  82 CALM      29.48S
HUNTINGDON     PTCLDY    55  52  88 SE3       29.47S
$$

TNZ008-025-027-028-033-062-065-066-220900-
NORTH MIDDLE TENNESSEE

CITY           SKY/WX    TMP DP  RH WIND       PRES   REMARKS
NASHVILLE      CLOUDY    54  49  83 SE5       29.50F
PORTLAND       CLEAR     54  50  87 CALM      29.52R
CLARKSVILLE    CLOUDY    52  48  86 E5        29.50F
SMYRNA         CLOUDY    50  49  96 CALM      29.52F
GALLATIN       CLEAR     54  50  87 CALM      29.55S
CROSSVILLE     PTCLDY    49  47  93 E5        29.56F
$$

TNZ061-075-076-078-094-096-097-220900-
SOUTH MIDDLE TENNESSEE

CITY           SKY/WX    TMP DP  RH WIND       PRES   REMARKS
TULLAHOMA      CLEAR     54  52  94 CALM      29.51F
WINCHESTER     PTCLDY    55  54  94 SE7       29.51S
MCMINNVILLE    CLEAR     52  52 100 CALM      29.52S
COLUMBIA       CLEAR    N/A N/A N/A CALM      29.47F
SHELBYVILLE    CLEAR     55  54  94 E5        29.50F
$$

TNZ017-018-042-046-047-220900-
NORTHEAST TENNESSEE

CITY           SKY/WX    TMP DP  RH WIND       PRES   REMARKS
TRI CITIES     CLOUDY    50  49  96 CALM      29.63F
ELIZABETHTON   CLOUDY    50  48  93 E3        29.65F
$$

TNZ012-013-036-069-073-074-220900-
CENTRAL EAST TENNESSEE

CITY           SKY/WX    TMP DP  RH WIND       PRES   REMARKS
KNOXVILLE      CLOUDY    51  49  92 E5        29.57F
OAK RIDGE      CLOUDY    51  48  89 CALM      29.58F
GATLINBURG     CLEAR     46  45  93 CALM      29.60S
MORRISTOWN     CLOUDY    52  52 100 CALM      29.59F
JACKSBORO      FOG       43  43 100 CALM      29.61F VSB 0
$$

TNZ083-085-099-220900-
SOUTHEAST TENNESSEE

CITY           SKY/WX    TMP DP  RH WIND       PRES   REMARKS
CHATTANOOGA    CLOUDY    54  52  93 CALM      29.57R
$$

SKY/WX REPORTED AS FAIR MEANS FEW OR NO CLOUDS BELOW
12 THOUSAND FEET.





USA.gov is the U.S. government's official web portal to all federal, state and local government web resources and services.